GW3494 Weather Reports


time (UTC)temp
C
wind
direction
speed
KPH
gust
KPH
rain 1hr
cm
rain 24hr
cm
rain mn
cm
humidity
%
barometer
mb
20260508023443 8 9 3.2 3.2 0.00 0.00 0.00 60 1013.6
20260508022941 8 121 0.0 3.2 0.00 0.00 0.00 61 1013.6
20260508022436 8 180 1.6 4.8 0.00 0.00 0.00 61 1013.5
20260508021932 8 14 0.0 4.8 0.00 0.00 0.00 61 1013.4
20260508021429 8 192 1.6 3.2 0.00 0.00 0.00 62 1013.5
20260508020924 8 90 0.0 3.2 0.00 0.00 0.00 61 1013.3
20260508020423 8 98 1.6 1.6 0.00 0.00 0.00 61 1013.4
20260508015920 8 96 0.0 3.2 0.00 0.00 0.00 60 1013.3
20260508015418 9 128 3.2 4.8 0.00 0.00 0.00 59 1013.3
20260508014914 9 199 3.2 3.2 0.00 0.00 0.00 60 1013.1
20260508014412 9 251 0.0 4.8 0.00 0.00 0.00 60 1012.8
20260508013911 9 247 0.0 3.2 0.00 0.00 0.00 58 1013.0
20260508013408 10 357 3.2 3.2 0.00 0.00 0.00 56 1013.0
20260508012906 10 0 3.2 6.4 0.00 0.00 0.00 56 1013.1
20260508012403 10 78 0.0 4.8 0.00 0.00 0.00 56 1012.9
20260508011900 10 171 0.0 4.8 0.00 0.00 0.00 57 1013.0
20260508011358 10 7 0.0 4.8 0.00 0.00 0.00 54 1012.6
20260508010855 10 98 1.6 4.8 0.00 0.00 0.00 54 1012.6
20260508010352 10 90 1.6 3.2 0.00 0.00 0.00 55 1012.6
20260508005849 10 240 3.2 4.8 0.00 0.00 0.00 51 1012.6
20260508005346 10 90 1.6 4.8 0.00 0.00 0.00 53 1012.6
20260508004842 10 8 0.0 4.8 0.00 0.00 0.00 52 1012.6
20260508004339 10 344 3.2 4.8 0.00 0.00 0.00 51 1012.6
20260508003835 10 276 4.8 11.3 0.00 0.00 0.00 52 1012.4
20260508003333 11 19 3.2 4.8 0.00 0.00 0.00 53 1012.2
20260508002830 11 263 0.0 4.8 0.00 0.00 0.00 52 1012.2
20260508002326 11 246 0.0 6.4 0.00 0.00 0.00 51 1012.0
20260508001822 11 40 3.2 3.2 0.00 0.00 0.00 53 1011.9
20260508001318 11 90 1.6 4.8 0.00 0.00 0.00 50 1011.7
20260508000815 11 290 3.2 4.8 0.00 0.00 0.00 50 1011.6
20260508000312 11 173 0.0 3.2 0.00 0.00 0.00 52 1011.8
20260507235808 11 15 0.0 3.2 0.00 0.00 0.00 49 1011.5
20260507235307 12 154 0.0 3.2 0.00 0.00 0.00 50 1011.7
20260507234802 11 63 1.6 4.8 0.00 0.00 0.00 47 1011.6
20260507234259 12 120 1.6 6.4 0.00 0.00 0.00 50 1011.4
20260507233755 12 243 1.6 4.8 0.00 0.00 0.00 48 1011.5
20260507233253 12 90 0.0 9.7 0.00 0.00 0.00 48 1011.5
20260507232751 12 180 1.6 4.8 0.00 0.00 0.00 47 1011.3
20260507232247 12 270 0.0 6.4 0.00 0.00 0.00 46 1011.3
20260507231744 13 248 8.0 9.7 0.00 0.00 0.00 43 1011.0
20260507231241 13 180 0.0 4.8 0.00 0.00 0.00 46 1011.2
20260507230737 13 265 6.4 6.4 0.00 0.00 0.00 43 1011.0
20260507230235 14 346 0.0 6.4 0.00 0.00 0.00 42 1011.1
20260507225734 14 292 4.8 8.0 0.00 0.00 0.00 43 1011.1
20260507225231 14 322 3.2 11.3 0.00 0.00 0.00 43 1010.9
20260507224726 15 243 1.6 9.7 0.00 0.00 0.00 45 1011.0
20260507224223 14 0 0.0 4.8 0.00 0.00 0.00 49 1011.1
20260507223719 13 74 0.0 3.2 0.00 0.00 0.00 49 1010.9
20260507223217 13 348 4.8 11.3 0.00 0.00 0.00 43 1010.9
20260507222713 13 0 0.0 3.2 0.00 0.00 0.00 49 1011.3
20260507222209 14 1 6.4 8.0 0.00 0.00 0.00 46 1010.9
20260507221706 15 266 4.8 4.8 0.00 0.00 0.00 44 1011.0
20260507221202 15 180 3.2 6.4 0.00 0.00 0.00 50 1010.8
20260507220659 15 36 3.2 9.7 0.00 0.00 0.00 44 1010.8
20260507220158 15 14 0.0 6.4 0.00 0.00 0.00 44 1010.6
20260507215653 15 286 1.6 4.8 0.00 0.00 0.00 45 1010.6
20260507215151 14 0 0.0 8.0 0.00 0.00 0.00 46 1010.6
20260507214648 15 66 4.8 6.4 0.00 0.00 0.00 42 1010.2
20260507214144 15 184 0.0 8.0 0.00 0.00 0.00 47 1010.2
20260507213640 13 243 4.8 11.3 0.00 0.00 0.00 45 1010.2
20260507213138 13 0 4.8 4.8 0.00 0.00 0.00 47 1010.2
20260507212634 15 0 1.6 3.2 0.00 0.00 0.00 46 1010.5
20260507212131 15 354 0.0 6.4 0.00 0.00 0.00 46 1010.2
20260507211628 15 203 0.0 4.8 0.00 0.00 0.00 44 1010.3
20260507211123 15 45 0.0 4.8 0.00 0.00 0.00 48 1010.3
20260507210621 14 59 4.8 8.0 0.00 0.00 0.00 48 1010.5
20260507210117 15 18 1.6 14.5 0.00 0.00 0.00 44 1010.2
20260507205614 15 180 0.0 6.4 0.00 0.00 0.00 47 1010.0
20260507205110 13 250 0.0 3.2 0.00 0.00 0.00 53 1010.3
20260507204607 14 341 3.2 8.0 0.00 0.00 0.00 47 1010.2
20260507204104 15 6 4.8 6.4 0.00 0.00 0.00 45 1010.1
20260507203602 15 172 0.0 8.0 0.00 0.00 0.00 43 1010.1
20260507203059 15 221 3.2 11.3 0.00 0.00 0.00 43 1010.2
20260507202555 15 239 9.7 20.9 0.00 0.00 0.00 46 1010.1
20260507202051 14 223 6.4 8.0 0.00 0.00 0.00 47 1010.0
20260507201547 15 222 8.0 14.5 0.00 0.00 0.00 45 1010.3
20260507201044 16 256 4.8 11.3 0.00 0.00 0.00 43 1010.6
20260507200539 16 258 4.8 19.3 0.00 0.00 0.00 46 1010.3
20260507200035 16 207 4.8 16.1 0.00 0.00 0.00 46 1010.1
20260507195533 17 213 3.2 11.3 0.00 0.00 0.00 47 1010.3
20260507195030 17 155 4.8 9.7 0.00 0.00 0.00 44 1010.3
20260507194526 18 250 3.2 3.2 0.00 0.00 0.00 43 1010.7
20260507194023 17 266 3.2 6.4 0.00 0.00 0.00 43 1010.5
20260507193520 17 220 12.9 20.9 0.00 0.00 0.00 42 1011.0
20260507193017 17 345 4.8 17.7 0.00 0.00 0.00 43 1011.0
20260507192513 17 225 4.8 6.4 0.00 0.00 0.00 50 1010.9
20260507192010 16 270 0.0 9.7 0.00 0.00 0.00 46 1010.9
20260507191505 15 105 3.2 3.2 0.00 0.00 0.00 49 1010.9
20260507191002 15 99 0.0 9.7 0.00 0.00 0.00 50 1010.9
20260507190500 16 235 0.0 8.0 0.00 0.00 0.00 53 1011.0
20260507185959 13 198 8.0 16.1 0.00 0.00 0.00 47 1011.1
20260507185455 15 225 4.8 14.5 0.00 0.00 0.00 48 1011.0
20260507184952 16 344 8.0 9.7 0.00 0.00 0.00 45 1010.9
20260507184450 17 274 8.0 8.0 0.00 0.00 0.00 45 1011.1
20260507183948 16 358 4.8 25.7 0.00 0.00 0.00 44 1011.2
20260507183444 17 286 0.0 4.8 0.00 0.00 0.00 49 1011.1
20260507182941 16 241 6.4 9.7 0.00 0.00 0.00 48 1011.2
20260507182437 17 0 3.2 4.8 0.00 0.00 0.00 46 1011.3
20260507181934 16 196 6.4 11.3 0.00 0.00 0.00 46 1011.2
20260507181430 17 195 0.0 4.8 0.00 0.00 0.00 48 1011.1
20260507180927 16 203 4.8 12.9 0.00 0.00 0.00 51 1011.3
20260507180424 15 149 4.8 6.4 0.00 0.00 0.00 55 1011.3
20260507175919 16 338 4.8 8.0 0.00 0.00 0.00 45 1011.2
20260507175416 16 353 16.1 16.1 0.00 0.00 0.00 45 1011.1
20260507174914 17 225 4.8 11.3 0.00 0.00 0.00 44 1011.5
20260507174411 16 270 0.0 12.9 0.00 0.00 0.00 48 1011.5
20260507173909 16 147 8.0 8.0 0.00 0.00 0.00 52 1011.4
20260507173406 16 95 3.2 9.7 0.00 0.00 0.00 46 1011.4
20260507172902 15 209 1.6 6.4 0.00 0.00 0.00 49 1011.5
20260507172359 14 184 4.8 14.5 0.00 0.00 0.00 47 1011.5
20260507171855 15 343 6.4 8.0 0.00 0.00 0.00 51 1011.6
20260507171351 15 66 1.6 6.4 0.00 0.00 0.00 51 1011.8
20260507170849 13 261 0.0 16.1 0.00 0.00 0.00 50 1011.6
20260507170345 15 255 1.6 4.8 0.00 0.00 0.00 55 1011.8
20260507165841 15 208 6.4 11.3 0.00 0.00 0.00 50 1011.8
20260507165337 15 173 1.6 9.7 0.00 0.00 0.00 54 1012.0
20260507164833 13 190 3.2 8.0 0.00 0.00 0.00 51 1011.9
20260507164330 13 166 1.6 4.8 0.00 0.00 0.00 54 1011.9
20260507163827 14 23 0.0 17.7 0.00 0.00 0.00 58 1012.0
20260507163325 13 0 3.2 9.7 0.00 0.00 0.00 57 1012.1
20260507162821 13 160 1.6 3.2 0.00 0.00 0.00 53 1012.1
20260507162317 15 140 3.2 3.2 0.00 0.00 0.00 50 1011.8
20260507161814 15 200 1.6 6.4 0.00 0.00 0.00 56 1012.2
20260507161311 13 255 0.0 3.2 0.00 0.00 0.00 55 1012.0
20260507160807 15 18 0.0 4.8 0.00 0.00 0.00 48 1012.1
20260507160303 13 36 3.2 4.8 0.00 0.00 0.00 55 1012.3
20260507155759 13 3 3.2 6.4 0.00 0.00 0.00 54 1012.3
20260507155255 12 169 3.2 8.0 0.00 0.00 0.00 52 1012.6
20260507154752 13 132 6.4 11.3 0.00 0.00 0.00 48 1012.7
20260507154250 13 143 3.2 6.4 0.00 0.00 0.00 59 1012.4
20260507153746 14 356 3.2 8.0 0.00 0.00 0.00 52 1012.4
20260507153242 14 169 0.0 8.0 0.00 0.00 0.00 54 1012.4
20260507152739 13 226 0.0 8.0 0.00 0.00 0.00 50 1012.6
20260507152236 14 243 8.0 8.0 0.00 0.00 0.00 56 1012.6
20260507151731 13 110 3.2 4.8 0.00 0.00 0.00 57 1012.4
20260507151228 14 246 3.2 6.4 0.00 0.00 0.00 56 1012.6
20260507150725 14 119 3.2 9.7 0.00 0.00 0.00 52 1012.7
20260507150222 13 180 1.6 11.3 0.00 0.00 0.00 59 1012.8
20260507145718 13 216 0.0 6.4 0.00 0.00 0.00 55 1012.8
20260507145215 13 129 3.2 3.2 0.00 0.00 0.00 54 1013.0
20260507144711 14 195 3.2 6.4 0.00 0.00 0.00 56 1013.0
20260507144209 13 80 6.4 8.0 0.00 0.00 0.00 52 1012.9
20260507143706 12 166 3.2 3.2 0.00 0.00 0.00 60 1013.0
20260507143203 11 81 0.0 4.8 0.00 0.00 0.00 62 1013.0
20260507142658 12 0 3.2 4.8 0.00 0.00 0.00 60 1012.9
20260507142155 12 119 3.2 3.2 0.00 0.00 0.00 67 1013.2
20260507141651 12 60 0.0 8.0 0.00 0.00 0.00 61 1013.0
20260507141148 12 227 0.0 4.8 0.00 0.00 0.00 64 1013.4
20260507140645 12 71 3.2 6.4 0.00 0.00 0.00 61 1013.2
20260507140142 12 147 3.2 4.8 0.00 0.00 0.00 59 1013.5
20260507135639 12 36 3.2 3.2 0.00 0.00 0.00 62 1013.4
20260507135137 12 14 3.2 4.8 0.00 0.00 0.00 62 1013.7
20260507134633 12 29 1.6 4.8 0.00 0.00 0.00 62 1013.6
20260507134129 12 216 4.8 8.0 0.00 0.00 0.00 63 1013.8
20260507133625 12 26 0.0 3.2 0.00 0.00 0.00 65 1013.8
20260507133123 11 52 4.8 8.0 0.00 0.00 0.00 62 1013.7
20260507132620 12 5 4.8 4.8 0.00 0.00 0.00 62 1013.8
20260507132116 12 118 4.8 6.4 0.00 0.00 0.00 65 1014.1
20260507131613 11 198 1.6 3.2 0.00 0.00 0.00 68 1013.9
20260507131110 11 139 6.4 8.0 0.00 0.00 0.00 69 1013.7
20260507130607 10 129 3.2 8.0 0.00 0.00 0.00 70 1014.0
20260507130105 10 135 6.4 6.4 0.00 0.00 0.00 72 1013.9
20260507125603 10 143 6.4 9.7 0.00 0.00 0.00 76 1013.9
20260507125100 10 110 3.2 11.3 0.00 0.00 0.00 75 1013.7
20260507124557 10 137 8.0 8.0 0.00 0.00 0.00 74 1013.8
20260507124055 10 142 8.0 9.7 0.00 0.00 0.00 78 1013.6
20260507123552 9 143 6.4 9.7 0.00 0.00 0.00 77 1013.5
20260507123049 9 131 4.8 9.7 0.00 0.00 0.00 79 1013.9
20260507122544 9 133 4.8 9.7 0.00 0.00 0.00 79 1013.6
20260507122040 8 135 4.8 8.0 0.00 0.00 0.00 79 1013.6
20260507121536 8 137 6.4 8.0 0.00 0.00 0.00 81 1013.6
20260507121032 8 134 8.0 8.0 0.00 0.00 0.00 81 1013.9
20260507120528 8 139 6.4 8.0 0.00 0.00 0.00 79 1013.7
20260507120026 8 144 4.8 8.0 0.00 0.00 0.00 79 1013.6
20260507115522 8 139 6.4 8.0 0.00 0.00 0.00 76 1013.8
20260507115018 8 141 6.4 6.4 0.00 0.00 0.00 79 1013.6
20260507114514 8 135 3.2 6.4 0.00 0.00 0.00 81 1013.7
20260507114011 8 135 4.8 6.4 0.00 0.00 0.00 82 1013.7
20260507113508 8 135 3.2 4.8 0.00 0.00 0.00 83 1013.5
20260507113006 8 138 4.8 6.4 0.00 0.00 0.00 84 1013.7
20260507112503 7 133 4.8 6.4 0.00 0.00 0.00 85 1013.6
20260507111959 7 140 4.8 8.0 0.00 0.00 0.00 84 1013.3
20260507111457 7 142 6.4 8.0 0.00 0.00 0.00 84 1013.1
20260507110953 7 132 3.2 4.8 0.00 0.00 0.00 83 1013.3
20260507110449 7 133 4.8 6.4 0.00 0.00 0.00 83 1013.2
20260507105946 7 125 3.2 4.8 0.00 0.00 0.00 83 1013.1
20260507105443 7 135 3.2 4.8 0.00 0.00 0.00 84 1013.0
20260507104940 6 109 3.2 4.8 0.00 0.00 0.00 85 1013.1
20260507104437 6 96 0.0 3.2 0.00 0.00 0.00 86 1012.9
20260507103932 6 123 1.6 3.2 0.00 0.00 0.00 85 1013.2
20260507103429 6 90 1.6 3.2 0.00 0.00 0.00 85 1013.0
20260507102925 6 66 0.0 3.2 0.00 0.00 0.00 85 1013.0
20260507102422 6 57 1.6 24.1 0.00 0.00 0.00 86 1012.8
20260507101919 6 246 1.6 3.2 0.00 0.00 0.00 86 1013.0
20260507101414 6 15 0.0 0.0 0.00 0.00 0.00 87 1012.9
20260507100910 6 15 0.0 0.0 0.00 0.00 0.00 88 1013.0
20260507100408 6 15 0.0 0.0 0.00 0.00 0.00 88 1012.9
20260507095906 6 345 0.0 0.0 0.00 0.00 0.00 88 1013.0
20260507095403 6 23 0.0 1.6 0.00 0.00 0.00 89 1012.8
20260507094900 6 0 0.0 1.6 0.00 0.00 0.00 90 1013.1
20260507094356 6 70 0.0 3.2 0.00 0.00 0.00 90 1012.8
20260507093853 6 29 0.0 1.6 0.00 0.00 0.00 90 1012.7
20260507093352 6 65 3.2 3.2 0.00 0.00 0.00 91 1012.7
20260507092849 6 15 0.0 1.6 0.00 0.00 0.00 90 1012.6
20260507092345 6 54 1.6 3.2 0.00 0.00 0.00 90 1012.8
20260507091842 6 54 0.0 3.2 0.00 0.00 0.00 90 1012.9
20260507091338 6 6 0.0 3.2 0.00 0.00 0.00 90 1012.7
20260507090834 6 18 0.0 3.2 0.00 0.00 0.00 89 1012.7
20260507090331 6 48 0.0 3.2 0.00 0.00 0.00 89 1012.7
20260507085828 6 29 3.2 3.2 0.00 0.00 0.00 89 1012.7
20260507085325 6 353 0.0 3.2 0.00 0.00 0.00 89 1012.8
20260507084822 6 345 0.0 1.6 0.00 0.00 0.00 90 1012.6
20260507084318 6 348 0.0 3.2 0.00 0.00 0.00 90 1012.8
20260507083816 6 40 1.6 1.6 0.00 0.00 0.00 91 1012.8
20260507083312 6 334 1.6 1.6 0.00 0.00 0.00 91 1012.7
20260507082808 7 54 0.0 1.6 0.00 0.00 0.00 91 1013.0
20260507082306 7 29 3.2 3.2 0.00 0.00 0.00 91 1013.0
20260507081801 7 29 0.0 1.6 0.00 0.00 0.00 91 1012.9
20260507081257 7 0 0.0 1.6 0.00 0.00 0.00 91 1012.9
20260507080754 7 306 0.0 3.2 0.00 0.00 0.00 92 1012.7
20260507080250 7 0 0.0 1.6 0.00 0.00 0.00 93 1012.8
20260507075746 7 49 0.0 1.6 0.00 0.00 0.00 93 1012.8
20260507075242 7 15 0.0 1.6 0.00 0.00 0.00 93 1012.9
20260507074738 7 54 0.0 1.6 0.00 0.00 0.00 92 1012.9
20260507074237 7 348 0.0 3.2 0.00 0.00 0.00 92 1012.8
20260507073733 7 23 0.0 1.6 0.00 0.00 0.00 92 1013.0
20260507073230 7 23 0.0 1.6 0.00 0.00 0.00 91 1012.7
20260507072728 7 353 1.6 3.2 0.00 0.00 0.00 92 1012.7
20260507072225 7 23 0.0 1.6 0.00 0.00 0.00 92 1012.7
20260507071722 7 300 1.6 3.2 0.00 0.00 0.00 93 1012.7
20260507071218 7 319 0.0 3.2 0.00 0.00 0.00 93 1012.9
20260507070715 8 0 0.0 1.6 0.00 0.00 0.00 92 1012.8
20260507070212 8 346 1.6 3.2 0.00 0.00 0.00 91 1012.6
20260507065709 8 5 1.6 3.2 0.00 0.00 0.00 91 1012.6
20260507065206 8 29 1.6 3.2 0.00 0.00 0.00 91 1012.7
20260507064703 8 15 0.0 3.2 0.00 0.00 0.00 91 1012.8
20260507064202 8 345 3.2 3.2 0.00 0.00 0.00 93 1012.9
20260507063659 8 0 1.6 3.2 0.00 0.00 0.00 94 1012.8
20260507063155 8 337 1.6 1.6 0.00 0.00 0.00 96 1012.8
20260507062652 8 15 0.0 0.0 0.00 0.00 0.00 96 1012.9
20260507062150 8 337 1.6 1.6 0.00 0.00 0.00 97 1012.7
20260507061648 8 352 0.0 1.6 0.00 0.00 0.00 97 1012.9
20260507061145 8 340 0.0 1.6 0.00 0.00 0.00 98 1012.6
20260507060643 8 23 0.0 1.6 0.00 0.00 0.00 98 1012.7
20260507060139 8 0 0.0 1.6 0.00 0.00 0.00 99 1012.7
20260507055635 8 74 0.0 1.6 0.00 0.00 0.00 99 1012.6
20260507055131 8 8 0.0 0.0 0.00 0.00 0.00 99 1013.0
20260507054627 8 15 0.0 0.0 0.00 0.00 0.00 99 1012.8
20260507054124 8 352 0.0 0.0 0.00 0.00 0.00 99 1012.8
20260507053622 8 346 0.0 0.0 0.00 0.00 0.00 99 1012.9
20260507053120 8 74 0.0 0.0 0.00 0.00 0.00 99 1013.0
20260507052618 8 15 0.0 0.0 0.00 0.00 0.00 99 1013.1
20260507052114 8 49 1.6 1.6 0.00 0.00 0.00 99 1013.2
20260507051612 8 352 0.0 0.0 0.00 0.00 0.00 99 1013.2
20260507051109 8 352 0.0 0.0 0.00 0.00 0.00 99 1013.3
20260507050605 8 352 0.0 0.0 0.00 0.00 0.00 99 1013.4
20260507045559 8 352 0.0 0.0 0.00 0.00 0.00 99 1013.5
20260507045056 8 352 0.0 0.0 0.00 0.00 0.00 99 1013.3
20260507044552 8 0 1.6 3.2 0.00 0.00 0.00 99 1013.4
20260507044050 8 23 1.6 3.2 0.00 0.00 0.00 99 1013.4
20260507043545 9 45 0.0 3.2 0.00 0.00 0.00 99 1013.4
20260507043043 9 0 0.0 3.2 0.00 0.00 0.00 99 1013.4
20260507042538 9 345 0.0 3.2 0.00 0.00 0.00 99 1013.1
20260507042034 9 81 0.0 0.0 0.00 0.00 0.00 99 1013.2
20260507041531 10 81 0.0 0.0 0.00 0.00 0.00 99 1013.2
20260507041028 10 237 0.0 0.0 0.00 0.00 0.00 99 1013.2
20260507040525 10 286 0.0 1.6 0.00 0.00 0.00 99 1013.2
20260507040020 10 303 1.6 1.6 0.00 1.22 1.22 97 1013.0
20260507035517 10 57 0.0 0.0 0.00 1.22 1.22 97 1013.1
20260507035013 10 345 0.0 0.0 0.00 1.22 1.22 96 1012.8
20260507034510 10 166 0.0 3.2 0.00 1.22 1.22 97 1012.8
20260507034008 9 229 0.0 3.2 0.00 1.22 1.22 98 1012.7
20260507033506 10 187 1.6 3.2 0.00 1.22 1.22 98 1012.8
20260507033003 10 200 0.0 3.2 0.00 1.22 1.22 97 1013.2
20260507032500 10 203 1.6 1.6 0.00 1.22 1.22 96 1013.1
20260507031956 10 195 0.0 3.2 0.00 1.22 1.22 94 1013.1
20260507031452 10 209 0.0 3.2 0.00 1.22 1.22 94 1012.9
20260507030949 10 203 0.0 3.2 0.00 1.22 1.22 95 1013.4
20260507030446 9 180 0.0 3.2 0.00 1.22 1.22 98 1013.4
20260507025943 9 194 1.6 1.6 0.00 1.22 1.22 99 1013.6
20260507025441 9 172 0.0 1.6 0.00 1.22 1.22 99 1013.1
20260507024939 9 165 0.0 1.6 0.00 1.22 1.22 99 1013.0
20260507024436 10 165 0.0 1.6 0.00 1.22 1.22 99 1012.9
20260507023931 10 172 0.0 1.6 0.00 1.22 1.22 99 1013.0